QPF
0.00 0.00 0.02 0.05 0.08 0.14 0.18 0.14 0.09 0.04 0.03 0.02 0.02 0.01 0.01 0.00 0.00 0.00 0.00 0.00 0.00 0.00 0.00 0.00 0.00 0.00 0.00 0.00 0.00 0.00 0.00 0.00 0.00 0.00 0.00 0.00 0.00 0.00 0.00 0.00 0.00 0.00 0.00 0.00 0.00 0.00 0.00 0.00 0.00
0.00 0.01 0.02 0.05 0.14 0.30 0.21 0.09 0.06 0.03 0.02 0.02 0.03 0.02 0.01 0.00 0.00 0.00 0.00 0.00 0.00 0.00 0.00 0.00 0.00 0.00 0.00 0.00 0.00 0.00 0.00 0.00 0.00 0.00 0.00 0.00 0.00 0.00 0.00 0.00 0.00 0.00 0.00 0.00 0.00 0.00 0.00 0.00 0.00
0.00 0.01 0.02 0.05 0.19 0.25 0.13 0.07 0.06 0.03 0.02 0.02 0.02 0.02 0.01 0.00 0.00 0.00 0.00 0.00 0.00 0.00 0.00 0.00 0.00 0.00 0.00 0.00 0.00 0.00 0.00 0.00 0.00 0.00 0.00 0.00 0.00 0.00 0.00 0.00 0.00 0.00 0.00 0.00 0.00 0.00 0.00 0.00 0.00
0.00 0.01 0.02 0.05 0.09 0.07 0.05 0.02 0.03 0.03 0.03 0.02 0.03 0.03 0.01 0.01 0.00 0.00 0.00 0.00 0.00 0.00 0.00 0.00 0.00 0.00 0.00 0.00 0.00 0.00 0.00 0.00 0.00 0.00 0.00 0.00 0.00 0.00 0.00 0.00 0.00 0.00 0.00 0.00 0.00 0.00 0.00 0.00 0.00
0.00 0.01 0.02 0.03 0.05 0.02 0.02 0.01 0.01 0.02 0.03 0.03 0.04 0.07 0.04 0.01 0.00 0.00 0.00 0.00 0.00 0.00 0.00 0.00 0.00 0.00 0.00 0.00 0.00 0.00 0.00 0.00 0.00 0.00 0.00 0.00 0.00 0.00 0.00 0.00 0.00 0.00 0.00 0.00 0.00 0.00 0.00 0.00 0.00
0.00 0.01 0.02 0.01 0.01 0.01 0.01 0.01 0.01 0.03 0.03 0.03 0.05 0.15 0.09 0.01 0.00 0.00 0.00 0.00 0.00 0.00 0.00 0.00 0.00 0.00 0.00 0.00 0.00 0.00 0.00 0.00 0.00 0.00 0.00 0.00 0.00 0.00 0.00 0.00 0.00 0.00 0.00 0.00 0.00 0.00 0.00 0.00 0.00
0.00 0.00 0.01 0.00 0.01 0.01 0.00 0.00 0.00 0.01 0.01 0.02 0.04 0.13 0.06 0.01 0.00 0.00 0.00 0.00 0.00 0.00 0.00 0.00 0.00 0.00 0.00 0.00 0.00 0.00 0.00 0.00 0.00 0.00 0.00 0.00 0.00 0.00 0.00 0.00 0.00 0.00 0.00 0.00 0.00 0.00 0.00 0.00 0.00
0.00 0.00 0.00 0.00 0.00 0.00 0.00 0.00 0.00 0.01 0.00 0.01 0.01 0.03 0.02 0.02 0.01 0.01 0.01 0.01 0.01 0.01 0.00 0.00 0.00 0.00 0.00 0.00 0.00 0.00 0.00 0.00 0.00 0.00 0.00 0.00 0.00 0.00 0.00 0.00 0.00 0.00 0.00 0.00 0.00 0.00 0.00 0.00 0.00
0.00 0.00 0.00 0.00 0.00 0.00 0.00 0.00 0.00 0.00 0.00 0.01 0.01 0.02 0.04 0.02 0.02 0.01 0.02 0.03 0.03 0.03 0.01 0.00 0.00 0.00 0.00 0.00 0.00 0.00 0.00 0.00 0.00 0.01 0.01 0.00 0.00 0.00 0.00 0.00 0.00 0.00 0.01 0.01 0.01 0.01 0.01 0.01 0.00
0.00 0.00 0.00 0.00 0.00 0.00 0.00 0.00 0.00 0.00 0.00 0.01 0.01 0.02 0.04 0.04 0.04 0.02 0.04 0.04 0.09 0.07 0.04 0.03 0.01 0.00 0.00 0.00 0.00 0.00 0.01 0.01 0.01 0.02 0.02 0.01 0.01 0.00 0.00 0.01 0.02 0.02 0.03 0.02 0.02 0.02 0.02 0.01 0.01
0.00 0.00 0.00 0.00 0.00 0.00 0.00 0.00 0.00 0.00 0.00 0.01 0.02 0.03 0.06 0.06 0.03 0.03 0.05 0.09 0.09 0.08 0.09 0.08 0.05 0.02 0.02 0.02 0.02 0.03 0.02 0.04 0.05 0.06 0.05 0.03 0.03 0.02 0.02 0.04 0.05 0.06 0.07 0.05 0.04 0.04 0.02 0.01 0.01
0.00 0.00 0.00 0.00 0.00 0.00 0.00 0.00 0.00 0.01 0.01 0.02 0.02 0.02 0.03 0.04 0.05 0.06 0.07 0.15 0.17 0.21 0.19 0.16 0.14 0.10 0.08 0.07 0.06 0.06 0.07 0.11 0.16 0.13 0.12 0.12 0.12 0.08 0.07 0.08 0.09 0.10 0.11 0.11 0.11 0.08 0.06 0.04 0.04
0.00 0.00 0.00 0.00 0.00 0.00 0.00 0.00 0.00 0.01 0.01 0.01 0.02 0.02 0.05 0.10 0.12 0.10 0.13 0.21 0.23 0.28 0.22 0.21 0.22 0.19 0.16 0.16 0.15 0.14 0.15 0.19 0.20 0.23 0.24 0.22 0.23 0.20 0.16 0.14 0.15 0.19 0.23 0.18 0.16 0.14 0.14 0.12 0.10
0.00 0.00 0.00 0.00 0.00 0.00 0.00 0.00 0.00 0.01 0.02 0.02 0.03 0.06 0.09 0.13 0.18 0.13 0.13 0.20 0.31 0.32 0.25 0.29 0.28 0.29 0.30 0.28 0.27 0.25 0.26 0.33 0.37 0.36 0.33 0.30 0.28 0.25 0.18 0.15 0.16 0.18 0.22 0.25 0.23 0.20 0.21 0.22 0.19
0.00 0.00 0.00 0.00 0.00 0.00 0.00 0.01 0.02 0.04 0.04 0.09 0.08 0.08 0.09 0.13 0.14 0.10 0.10 0.14 0.21 0.22 0.22 0.28 0.33 0.32 0.34 0.33 0.30 0.30 0.29 0.29 0.31 0.35 0.37 0.42 0.40 0.30 0.22 0.18 0.18 0.18 0.19 0.23 0.27 0.25 0.23 0.21 0.20
0.00 0.00 0.00 0.00 0.00 0.00 0.00 0.02 0.04 0.09 0.07 0.07 0.06 0.05 0.05 0.05 0.06 0.06 0.07 0.10 0.13 0.15 0.18 0.23 0.25 0.27 0.27 0.27 0.30 0.31 0.25 0.26 0.34 0.34 0.30 0.33 0.34 0.27 0.24 0.21 0.19 0.21 0.22 0.23 0.25 0.28 0.28 0.23 0.21
0.00 0.00 0.00 0.00 0.00 0.00 0.01 0.03 0.07 0.11 0.10 0.12 0.10 0.07 0.07 0.04 0.04 0.04 0.04 0.06 0.08 0.12 0.15 0.18 0.19 0.19 0.20 0.20 0.22 0.21 0.20 0.21 0.24 0.23 0.24 0.24 0.21 0.22 0.25 0.22 0.19 0.24 0.27 0.26 0.23 0.23 0.25 0.25 0.21
0.00 0.00 0.00 0.00 0.01 0.01 0.02 0.06 0.12 0.20 0.22 0.22 0.14 0.10 0.07 0.04 0.03 0.03 0.03 0.04 0.05 0.07 0.08 0.08 0.09 0.09 0.11 0.10 0.11 0.12 0.15 0.14 0.14 0.14 0.13 0.10 0.09 0.11 0.12 0.13 0.16 0.18 0.20 0.24 0.25 0.22 0.21 0.19 0.19
0.00 0.00 0.00 0.01 0.03 0.05 0.06 0.11 0.25 0.39 0.39 0.30 0.21 0.13 0.07 0.03 0.02 0.02 0.02 0.02 0.03 0.03 0.04 0.04 0.05 0.05 0.06 0.06 0.08 0.09 0.11 0.11 0.10 0.08 0.06 0.04 0.04 0.04 0.05 0.07 0.11 0.14 0.14 0.17 0.21 0.21 0.18 0.15 0.17
0.02 0.02 0.02 0.02 0.04 0.09 0.14 0.17 0.28 0.49 0.54 0.44 0.25 0.11 0.06 0.03 0.02 0.02 0.01 0.01 0.01 0.02 0.02 0.03 0.04 0.04 0.04 0.05 0.05 0.05 0.06 0.06 0.06 0.05 0.04 0.03 0.03 0.04 0.05 0.08 0.10 0.13 0.15 0.19 0.21 0.23 0.21 0.15 0.16
0.03 0.03 0.02 0.02 0.03 0.05 0.10 0.18 0.26 0.39 0.50 0.35 0.17 0.11 0.06 0.03 0.03 0.02 0.01 0.00 0.00 0.00 0.01 0.01 0.02 0.02 0.03 0.03 0.04 0.04 0.03 0.03 0.04 0.04 0.04 0.04 0.04 0.04 0.04 0.06 0.09 0.11 0.11 0.17 0.22 0.19 0.19 0.16 0.14
0.02 0.02 0.01 0.02 0.03 0.06 0.10 0.24 0.41 0.52 0.42 0.24 0.13 0.10 0.06 0.03 0.02 0.02 0.01 0.00 0.00 0.00 0.00 0.00 0.01 0.01 0.01 0.01 0.01 0.02 0.02 0.02 0.02 0.03 0.03 0.04 0.04 0.03 0.03 0.04 0.05 0.07 0.09 0.16 0.22 0.21 0.20 0.18 0.16
0.02 0.02 0.01 0.02 0.02 0.04 0.09 0.21 0.40 0.54 0.41 0.24 0.20 0.15 0.09 0.04 0.02 0.01 0.00 0.00 0.00 0.00 0.00 0.00 0.00 0.00 0.00 0.00 0.00 0.01 0.01 0.01 0.01 0.01 0.01 0.01 0.02 0.02 0.03 0.04 0.04 0.04 0.06 0.10 0.16 0.24 0.27 0.25 0.23
0.02 0.02 0.02 0.03 0.03 0.04 0.04 0.09 0.23 0.44 0.41 0.26 0.17 0.13 0.07 0.04 0.02 0.01 0.00 0.00 0.00 0.00 0.01 0.01 0.01 0.01 0.01 0.01 0.01 0.01 0.01 0.01 0.01 0.00 0.01 0.01 0.01 0.01 0.02 0.03 0.04 0.03 0.04 0.05 0.06 0.10 0.16 0.21 0.25
0.02 0.02 0.02 0.04 0.05 0.08 0.06 0.13 0.30 0.28 0.20 0.14 0.10 0.06 0.03 0.01 0.01 0.00 0.00 0.00 0.00 0.00 0.01 0.01 0.01 0.01 0.01 0.01 0.01 0.01 0.01 0.01 0.00 0.00 0.01 0.01 0.01 0.01 0.01 0.03 0.03 0.04 0.04 0.05 0.05 0.06 0.07 0.11 0.16
0.01 0.02 0.04 0.04 0.07 0.11 0.15 0.22 0.26 0.18 0.08 0.04 0.03 0.02 0.01 0.01 0.00 0.00 0.00 0.00 0.00 0.00 0.00 0.01 0.01 0.01 0.01 0.01 0.01 0.01 0.00 0.00 0.00 0.00 0.00 0.01 0.01 0.01 0.01 0.02 0.02 0.03 0.04 0.04 0.05 0.08 0.08 0.09 0.11
0.00 0.01 0.01 0.01 0.02 0.08 0.16 0.18 0.15 0.06 0.02 0.01 0.01 0.01 0.00 0.00 0.00 0.00 0.00 0.00 0.00 0.00 0.00 0.00 0.00 0.00 0.00 0.00 0.00 0.00 0.01 0.01 0.00 0.00 0.00 0.01 0.00 0.00 0.01 0.01 0.02 0.02 0.03 0.03 0.04 0.04 0.06 0.08 0.10
0.01 0.01 0.01 0.01 0.01 0.05 0.10 0.12 0.09 0.03 0.01 0.00 0.00 0.00 0.00 0.00 0.00 0.00 0.00 0.00 0.00 0.00 0.00 0.00 0.00 0.00 0.00 0.00 0.00 0.00 0.00 0.00 0.00 0.00 0.00 0.00 0.01 0.01 0.01 0.01 0.02 0.02 0.03 0.03 0.03 0.03 0.03 0.05 0.07
0.00 0.00 0.00 0.00 0.00 0.01 0.04 0.04 0.02 0.00 0.00 0.00 0.00 0.00 0.00 0.00 0.00 0.00 0.00 0.00 0.00 0.00 0.00 0.00 0.00 0.00 0.00 0.00 0.00 0.00 0.00 0.00 0.00 0.00 0.00 0.00 0.00 0.01 0.01 0.01 0.01 0.01 0.02 0.03 0.03 0.03 0.03 0.04 0.05
0.00 0.00 0.00 0.00 0.00 0.00 0.01 0.01 0.00 0.00 0.00 0.00 0.00 0.00 0.00 0.00 0.00 0.00 0.00 0.00 0.00 0.00 0.00 0.00 0.00 0.00 0.00 0.00 0.00 0.00 0.00 0.00 0.00 0.00 0.00 0.00 0.00 0.01 0.01 0.01 0.01 0.01 0.02 0.03 0.03 0.02 0.03 0.04 0.04
MSLP
1013.57 1014.60 1015.59 1016.36 1016.73 1016.61 1015.98 1014.92 1013.58 1012.16 1010.86 1009.85 1009.20 1008.93 1008.97 1009.19 1009.48 1009.70 1009.78 1009.72 1009.56 1009.37 1009.24 1009.22 1009.37 1009.68 1010.09 1010.57 1011.05 1011.49 1011.88 1012.21 1012.52 1012.83 1013.15 1013.50 1013.84 1014.17 1014.44 1014.66 1014.80 1014.90 1014.97 1015.05 1015.14 1015.26 1015.41 1015.56 1015.68
1013.91 1015.02 1015.97 1016.58 1016.71 1016.28 1015.35 1014.02 1012.49 1010.99 1009.70 1008.77 1008.25 1008.12 1008.29 1008.61 1008.95 1009.21 1009.32 1009.30 1009.20 1009.09 1009.05 1009.13 1009.36 1009.72 1010.17 1010.65 1011.11 1011.53 1011.91 1012.25 1012.58 1012.92 1013.28 1013.64 1013.99 1014.30 1014.54 1014.70 1014.80 1014.86 1014.91 1014.98 1015.08 1015.22 1015.39 1015.55 1015.68
1014.29 1015.43 1016.30 1016.72 1016.58 1015.86 1014.65 1013.10 1011.44 1009.90 1008.67 1007.86 1007.48 1007.49 1007.76 1008.16 1008.54 1008.82 1008.96 1008.98 1008.94 1008.92 1008.97 1009.15 1009.47 1009.88 1010.34 1010.80 1011.23 1011.61 1011.95 1012.26 1012.58 1012.92 1013.28 1013.65 1013.98 1014.26 1014.47 1014.59 1014.66 1014.71 1014.75 1014.84 1014.97 1015.14 1015.34 1015.52 1015.68
1014.70 1015.82 1016.56 1016.77 1016.38 1015.40 1013.96 1012.27 1010.55 1009.04 1007.91 1007.23 1006.99 1007.12 1007.48 1007.92 1008.31 1008.59 1008.74 1008.79 1008.81 1008.87 1009.03 1009.30 1009.69 1010.14 1010.60 1011.03 1011.40 1011.71 1011.98 1012.24 1012.52 1012.83 1013.17 1013.52 1013.83 1014.09 1014.27 1014.38 1014.44 1014.49 1014.57 1014.69 1014.86 1015.08 1015.31 1015.53 1015.70
1015.10 1016.14 1016.73 1016.73 1016.10 1014.92 1013.34 1011.58 1009.88 1008.47 1007.47 1006.94 1006.83 1007.05 1007.44 1007.88 1008.26 1008.51 1008.65 1008.72 1008.80 1008.94 1009.19 1009.55 1009.99 1010.46 1010.90 1011.28 1011.58 1011.81 1011.99 1012.18 1012.41 1012.68 1012.99 1013.31 1013.60 1013.84 1014.02 1014.13 1014.21 1014.29 1014.41 1014.57 1014.80 1015.06 1015.33 1015.58 1015.77
1015.45 1016.36 1016.76 1016.55 1015.73 1014.42 1012.78 1011.04 1009.45 1008.18 1007.35 1006.96 1006.96 1007.23 1007.62 1008.02 1008.33 1008.53 1008.64 1008.72 1008.85 1009.06 1009.39 1009.82 1010.31 1010.79 1011.21 1011.53 1011.74 1011.88 1011.99 1012.11 1012.28 1012.51 1012.79 1013.09 1013.37 1013.61 1013.79 1013.92 1014.03 1014.15 1014.30 1014.52 1014.79 1015.09 1015.39 1015.65 1015.85
1015.68 1016.40 1016.58 1016.17 1015.21 1013.83 1012.22 1010.60 1009.17 1008.10 1007.45 1007.21 1007.29 1007.57 1007.92 1008.24 1008.46 1008.59 1008.66 1008.74 1008.90 1009.18 1009.57 1010.06 1010.58 1011.06 1011.45 1011.71 1011.86 1011.94 1011.98 1012.05 1012.18 1012.38 1012.65 1012.94 1013.22 1013.46 1013.65 1013.80 1013.93 1014.08 1014.26 1014.51 1014.80 1015.11 1015.41 1015.67 1015.87
1015.69 1016.18 1016.13 1015.55 1014.49 1013.11 1011.60 1010.16 1008.96 1008.12 1007.66 1007.55 1007.69 1007.96 1008.24 1008.46 1008.58 1008.62 1008.65 1008.73 1008.92 1009.24 1009.69 1010.22 1010.75 1011.23 1011.59 1011.81 1011.92 1011.96 1011.97 1012.02 1012.14 1012.34 1012.61 1012.90 1013.19 1013.43 1013.62 1013.78 1013.91 1014.06 1014.25 1014.49 1014.76 1015.06 1015.35 1015.59 1015.77
1015.44 1015.67 1015.40 1014.66 1013.56 1012.24 1010.89 1009.68 1008.73 1008.14 1007.88 1007.89 1008.06 1008.29 1008.49 1008.60 1008.63 1008.60 1008.59 1008.67 1008.88 1009.24 1009.73 1010.28 1010.82 1011.29 1011.62 1011.83 1011.92 1011.95 1011.97 1012.04 1012.18 1012.40 1012.68 1012.98 1013.26 1013.50 1013.68 1013.81 1013.92 1014.04 1014.20 1014.40 1014.64 1014.89 1015.14 1015.35 1015.51
1014.91 1014.89 1014.41 1013.56 1012.46 1011.25 1010.10 1009.15 1008.48 1008.13 1008.05 1008.16 1008.36 1008.55 1008.66 1008.68 1008.63 1008.55 1008.52 1008.61 1008.84 1009.23 1009.73 1010.29 1010.81 1011.26 1011.58 1011.77 1011.87 1011.92 1011.98 1012.08 1012.27 1012.52 1012.82 1013.12 1013.39 1013.60 1013.75 1013.84 1013.91 1013.98 1014.07 1014.21 1014.38 1014.57 1014.77 1014.93 1015.07
1014.19 1013.92 1013.28 1012.36 1011.30 1010.25 1009.34 1008.67 1008.27 1008.14 1008.21 1008.40 1008.61 1008.75 1008.80 1008.75 1008.64 1008.54 1008.51 1008.61 1008.87 1009.26 1009.76 1010.28 1010.78 1011.18 1011.47 1011.66 1011.77 1011.86 1011.97 1012.13 1012.36 1012.64 1012.95 1013.25 1013.49 1013.67 1013.77 1013.81 1013.81 1013.82 1013.85 1013.91 1014.01 1014.14 1014.27 1014.40 1014.51
1013.38 1012.92 1012.17 1011.24 1010.28 1009.43 1008.76 1008.36 1008.20 1008.27 1008.46 1008.70 1008.90 1009.00 1008.99 1008.89 1008.76 1008.66 1008.65 1008.77 1009.04 1009.42 1009.87 1010.34 1010.77 1011.11 1011.36 1011.53 1011.65 1011.78 1011.93 1012.14 1012.41 1012.72 1013.02 1013.29 1013.50 1013.63 1013.68 1013.67 1013.62 1013.57 1013.54 1013.54 1013.58 1013.64 1013.72 1013.81 1013.91
1012.65 1012.06 1011.26 1010.40 1009.59 1008.95 1008.54 1008.39 1008.45 1008.66 1008.93 1009.18 1009.34 1009.39 1009.33 1009.21 1009.07 1008.99 1009.01 1009.15 1009.40 1009.74 1010.13 1010.50 1010.83 1011.08 1011.27 1011.40 1011.53 1011.67 1011.86 1012.10 1012.39 1012.69 1012.98 1013.21 1013.37 1013.46 1013.46 1013.42 1013.34 1013.27 1013.21 1013.17 1013.17 1013.19 1013.23 1013.29 1013.37
1012.15 1011.51 1010.74 1010.00 1009.39 1008.99 1008.83 1008.90 1009.12 1009.42 1009.71 1009.92 1010.02 1010.01 1009.90 1009.76 1009.63 1009.57 1009.61 1009.75 1009.97 1010.25 1010.53 1010.78 1010.98 1011.12 1011.22 1011.31 1011.41 1011.56 1011.76 1012.01 1012.29 1012.57 1012.81 1012.99 1013.11 1013.15 1013.13 1013.08 1013.02 1012.95 1012.91 1012.88 1012.87 1012.87 1012.88 1012.91 1012.96
1011.95 1011.32 1010.67 1010.11 1009.73 1009.59 1009.67 1009.91 1010.24 1010.57 1010.82 1010.95 1010.95 1010.85 1010.68 1010.51 1010.39 1010.35 1010.40 1010.53 1010.70 1010.88 1011.04 1011.14 1011.20 1011.22 1011.23 1011.26 1011.34 1011.47 1011.67 1011.91 1012.16 1012.38 1012.56 1012.69 1012.75 1012.76 1012.75 1012.72 1012.70 1012.70 1012.71 1012.72 1012.73 1012.72 1012.71 1012.70 1012.70
1012.03 1011.49 1011.01 1010.68 1010.57 1010.68 1010.97 1011.35 1011.73 1012.03 1012.18 1012.19 1012.06 1011.84 1011.60 1011.39 1011.27 1011.23 1011.28 1011.38 1011.49 1011.56 1011.58 1011.54 1011.46 1011.36 1011.29 1011.27 1011.32 1011.45 1011.63 1011.85 1012.05 1012.21 1012.32 1012.37 1012.38 1012.38 1012.38 1012.40 1012.46 1012.54 1012.62 1012.70 1012.74 1012.73 1012.69 1012.62 1012.54
1012.29 1011.91 1011.65 1011.59 1011.75 1012.11 1012.57 1013.04 1013.42 1013.64 1013.65 1013.49 1013.20 1012.85 1012.52 1012.27 1012.13 1012.10 1012.13 1012.19 1012.23 1012.20 1012.09 1011.92 1011.71 1011.52 1011.39 1011.35 1011.40 1011.52 1011.70 1011.88 1012.03 1012.12 1012.15 1012.13 1012.09 1012.06 1012.07 1012.15 1012.29 1012.46 1012.64 1012.77 1012.84 1012.83 1012.74 1012.58 1012.41
1012.60 1012.41 1012.40 1012.63 1013.07 1013.64 1014.25 1014.77 1015.11 1015.19 1015.03 1014.68 1014.21 1013.72 1013.31 1013.01 1012.86 1012.82 1012.84 1012.87 1012.84 1012.71 1012.50 1012.23 1011.94 1011.69 1011.54 1011.50 1011.57 1011.71 1011.90 1012.06 1012.16 1012.17 1012.12 1012.01 1011.91 1011.85 1011.87 1011.99 1012.19 1012.44 1012.68 1012.87 1012.95 1012.91 1012.75 1012.50 1012.19
1012.82 1012.84 1013.10 1013.61 1014.31 1015.08 1015.79 1016.32 1016.58 1016.51 1016.16 1015.60 1014.96 1014.34 1013.84 1013.51 1013.35 1013.32 1013.34 1013.35 1013.27 1013.08 1012.79 1012.45 1012.12 1011.86 1011.71 1011.71 1011.83 1012.02 1012.23 1012.38 1012.44 1012.38 1012.24 1012.04 1011.86 1011.75 1011.75 1011.89 1012.12 1012.41 1012.69 1012.89 1012.96 1012.87 1012.63 1012.26 1011.82
1012.86 1013.10 1013.62 1014.40 1015.33 1016.26 1017.05 1017.55 1017.69 1017.46 1016.91 1016.17 1015.38 1014.65 1014.09 1013.74 1013.60 1013.59 1013.63 1013.63 1013.53 1013.30 1012.98 1012.60 1012.26 1012.01 1011.92 1011.98 1012.16 1012.41 1012.65 1012.81 1012.83 1012.72 1012.48 1012.20 1011.93 1011.74 1011.70 1011.80 1012.02 1012.31 1012.59 1012.77 1012.80 1012.64 1012.30 1011.82 1011.25
1012.73 1013.18 1013.95 1014.96 1016.08 1017.13 1017.94 1018.39 1018.41 1018.01 1017.29 1016.39 1015.46 1014.66 1014.08 1013.75 1013.64 1013.67 1013.75 1013.77 1013.67 1013.44 1013.10 1012.72 1012.39 1012.18 1012.13 1012.26 1012.52 1012.83 1013.11 1013.28 1013.28 1013.10 1012.79 1012.41 1012.05 1011.78 1011.65 1011.69 1011.86 1012.10 1012.33 1012.46 1012.43 1012.20 1011.77 1011.19 1010.52
1012.51 1013.15 1014.13 1015.33 1016.59 1017.71 1018.53 1018.90 1018.80 1018.24 1017.36 1016.33 1015.32 1014.48 1013.91 1013.62 1013.57 1013.67 1013.80 1013.86 1013.78 1013.55 1013.21 1012.84 1012.53 1012.35 1012.36 1012.54 1012.85 1013.22 1013.53 1013.70 1013.68 1013.46 1013.08 1012.62 1012.16 1011.79 1011.57 1011.51 1011.60 1011.76 1011.92 1011.98 1011.88 1011.58 1011.09 1010.45 1009.73
1012.33 1013.14 1014.28 1015.63 1016.98 1018.13 1018.90 1019.19 1018.96 1018.27 1017.27 1016.15 1015.09 1014.25 1013.71 1013.48 1013.51 1013.68 1013.87 1013.98 1013.92 1013.71 1013.37 1013.00 1012.70 1012.54 1012.57 1012.78 1013.12 1013.50 1013.83 1014.00 1013.96 1013.70 1013.27 1012.74 1012.21 1011.75 1011.43 1011.28 1011.27 1011.34 1011.40 1011.39 1011.22 1010.88 1010.36 1009.70 1008.97
1012.31 1013.25 1014.52 1015.95 1017.34 1018.48 1019.19 1019.38 1019.03 1018.23 1017.14 1015.97 1014.91 1014.09 1013.60 1013.44 1013.54 1013.79 1014.03 1014.17 1014.14 1013.93 1013.60 1013.22 1012.90 1012.73 1012.75 1012.95 1013.29 1013.66 1013.97 1014.13 1014.07 1013.80 1013.33 1012.76 1012.17 1011.65 1011.25 1011.01 1010.90 1010.87 1010.86 1010.77 1010.56 1010.19 1009.67 1009.03 1008.34
1012.51 1013.54 1014.88 1016.35 1017.74 1018.83 1019.46 1019.55 1019.10 1018.22 1017.09 1015.90 1014.85 1014.07 1013.64 1013.55 1013.71 1014.01 1014.29 1014.45 1014.43 1014.22 1013.87 1013.48 1013.13 1012.93 1012.91 1013.06 1013.35 1013.68 1013.96 1014.09 1014.01 1013.72 1013.25 1012.67 1012.06 1011.50 1011.05 1010.73 1010.54 1010.43 1010.34 1010.19 1009.95 1009.58 1009.09 1008.51 1007.89
1012.92 1014.00 1015.37 1016.84 1018.17 1019.19 1019.73 1019.73 1019.21 1018.28 1017.13 1015.96 1014.94 1014.22 1013.84 1013.80 1014.00 1014.31 1014.61 1014.77 1014.75 1014.53 1014.16 1013.74 1013.36 1013.11 1013.02 1013.11 1013.33 1013.59 1013.81 1013.90 1013.81 1013.52 1013.06 1012.49 1011.88 1011.32 1010.84 1010.48 1010.22 1010.04 1009.89 1009.70 1009.43 1009.08 1008.64 1008.13 1007.62
1013.44 1014.55 1015.91 1017.32 1018.58 1019.50 1019.95 1019.88 1019.32 1018.38 1017.25 1016.12 1015.16 1014.49 1014.16 1014.13 1014.34 1014.65 1014.93 1015.08 1015.04 1014.80 1014.42 1013.98 1013.56 1013.26 1013.11 1013.12 1013.24 1013.42 1013.57 1013.62 1013.50 1013.22 1012.78 1012.25 1011.67 1011.12 1010.64 1010.25 1009.95 1009.72 1009.51 1009.28 1009.00 1008.67 1008.29 1007.87 1007.46
1013.96 1015.06 1016.37 1017.70 1018.86 1019.69 1020.06 1019.94 1019.37 1018.46 1017.39 1016.33 1015.44 1014.82 1014.51 1014.49 1014.68 1014.95 1015.18 1015.30 1015.23 1014.99 1014.60 1014.15 1013.72 1013.37 1013.17 1013.10 1013.14 1013.23 1013.30 1013.29 1013.15 1012.86 1012.46 1011.96 1011.43 1010.91 1010.43 1010.03 1009.70 1009.42 1009.16 1008.90 1008.62 1008.31 1007.97 1007.64 1007.34
1014.37 1015.44 1016.67 1017.89 1018.94 1019.66 1019.97 1019.83 1019.29 1018.45 1017.48 1016.51 1015.70 1015.14 1014.84 1014.80 1014.94 1015.15 1015.33 1015.39 1015.30 1015.05 1014.67 1014.24 1013.81 1013.46 1013.21 1013.08 1013.04 1013.04 1013.03 1012.95 1012.78 1012.49 1012.10 1011.63 1011.14 1010.65 1010.19 1009.78 1009.42 1009.10 1008.80 1008.51 1008.21 1007.91 1007.63 1007.37 1007.17
1014.63 1015.63 1016.75 1017.85 1018.78 1019.41 1019.66 1019.53 1019.05 1018.32 1017.46 1016.62 1015.91 1015.39 1015.11 1015.04 1015.11 1015.24 1015.35 1015.36 1015.24 1015.00 1014.65 1014.25 1013.85 1013.51 1013.25 1013.07 1012.95 1012.87 1012.77 1012.62 1012.39 1012.08 1011.69 1011.25 1010.78 1010.31 1009.86 1009.44 1009.06 1008.70 1008.37 1008.04 1007.73 1007.45 1007.21 1007.01 1006.89
Thickness
5829 5826 5822 5811 5791 5778 5778 5800 5819 5828 5838 5855 5864 5861 5850 5843 5834 5825 5850 5857 5852 5844 5838 5833 5830 5827 5823 5820 5816 5812 5808 5804 5801 5797 5794 5792 5789 5787 5784 5782 5780 5777 5775 5772 5770 5768 5766 5764 5762
5829 5825 5815 5799 5781 5768 5781 5810 5820 5833 5846 5857 5859 5859 5851 5846 5854 5849 5850 5852 5850 5844 5838 5833 5829 5826 5822 5818 5814 5810 5806 5803 5799 5796 5793 5790 5787 5785 5783 5781 5779 5776 5774 5771 5769 5767 5764 5763 5761
5829 5825 5804 5788 5778 5774 5789 5817 5827 5844 5857 5856 5850 5854 5850 5847 5855 5852 5853 5852 5847 5841 5836 5832 5827 5824 5820 5816 5812 5809 5805 5801 5798 5794 5791 5788 5786 5783 5781 5779 5777 5775 5772 5770 5768 5766 5764 5761 5760
5825 5810 5798 5782 5779 5797 5810 5828 5838 5843 5851 5855 5848 5838 5849 5861 5861 5857 5853 5849 5842 5836 5833 5829 5825 5821 5818 5814 5810 5806 5803 5799 5796 5793 5790 5787 5784 5782 5779 5777 5775 5773 5771 5768 5766 5764 5762 5760 5759
5819 5798 5782 5776 5789 5813 5830 5841 5846 5842 5843 5847 5845 5831 5835 5856 5863 5856 5850 5844 5838 5833 5829 5826 5822 5818 5815 5811 5808 5804 5801 5797 5794 5791 5788 5785 5782 5780 5778 5775 5773 5771 5769 5767 5764 5762 5760 5759 5758
5803 5791 5774 5773 5795 5823 5837 5847 5849 5842 5841 5844 5840 5829 5829 5848 5851 5847 5845 5839 5836 5830 5826 5822 5818 5815 5812 5808 5805 5801 5798 5795 5792 5789 5786 5783 5781 5778 5776 5774 5771 5769 5766 5764 5763 5760 5758 5757 5756
5796 5787 5779 5788 5799 5814 5834 5848 5844 5840 5838 5842 5844 5825 5828 5840 5847 5847 5840 5834 5829 5825 5821 5818 5814 5811 5808 5804 5801 5798 5794 5791 5788 5786 5783 5781 5779 5776 5774 5771 5769 5767 5764 5762 5760 5759 5757 5755 5753
5809 5791 5783 5787 5796 5808 5833 5841 5845 5842 5838 5851 5847 5824 5822 5838 5845 5842 5835 5827 5822 5818 5814 5812 5810 5807 5804 5800 5796 5793 5790 5788 5785 5783 5780 5778 5776 5773 5770 5768 5766 5764 5762 5760 5758 5757 5755 5753 5751
5814 5781 5771 5784 5797 5811 5831 5831 5839 5846 5841 5841 5843 5839 5840 5843 5840 5832 5823 5816 5812 5810 5807 5805 5804 5801 5798 5795 5792 5789 5786 5784 5781 5778 5776 5774 5772 5769 5767 5765 5762 5760 5758 5757 5756 5755 5753 5751 5749
5796 5771 5784 5806 5815 5819 5827 5829 5832 5828 5823 5822 5827 5832 5836 5834 5829 5820 5813 5808 5805 5802 5800 5799 5797 5795 5793 5790 5788 5784 5782 5779 5776 5773 5771 5769 5767 5764 5762 5760 5759 5757 5755 5753 5752 5751 5750 5748 5747
5795 5786 5803 5815 5824 5825 5822 5825 5831 5820 5805 5809 5810 5814 5819 5818 5815 5809 5806 5804 5802 5799 5795 5793 5791 5790 5788 5786 5783 5780 5777 5774 5771 5768 5766 5763 5761 5759 5757 5755 5754 5753 5752 5750 5749 5747 5746 5746 5745
5795 5801 5811 5817 5826 5823 5820 5820 5816 5813 5808 5813 5812 5810 5807 5804 5801 5797 5795 5795 5794 5792 5791 5788 5785 5783 5782 5781 5779 5775 5772 5770 5766 5764 5761 5759 5756 5753 5751 5750 5749 5748 5748 5747 5746 5744 5743 5743 5742
5792 5800 5812 5819 5822 5821 5818 5811 5807 5800 5807 5809 5807 5803 5797 5793 5791 5790 5789 5789 5789 5787 5786 5786 5782 5779 5778 5775 5772 5770 5768 5766 5763 5760 5757 5754 5752 5749 5748 5746 5745 5744 5743 5743 5742 5740 5739 5739 5739
5797 5802 5809 5815 5816 5817 5807 5800 5796 5788 5798 5797 5793 5788 5785 5782 5781 5780 5780 5779 5779 5779 5779 5779 5775 5772 5769 5767 5764 5763 5761 5759 5756 5754 5752 5749 5745 5742 5742 5742 5741 5740 5739 5739 5739 5737 5736 5734 5734
5800 5792 5798 5808 5810 5809 5804 5778 5777 5781 5788 5783 5780 5777 5774 5772 5773 5771 5771 5770 5770 5770 5771 5770 5768 5765 5762 5759 5757 5755 5753 5751 5749 5747 5745 5743 5741 5739 5739 5737 5734 5733 5732 5733 5733 5732 5731 5730 5730
5786 5776 5770 5793 5803 5805 5787 5750 5763 5772 5774 5769 5768 5766 5763 5761 5763 5762 5762 5761 5762 5761 5759 5760 5760 5757 5753 5750 5749 5747 5746 5744 5741 5739 5738 5737 5736 5735 5734 5731 5729 5728 5728 5727 5727 5727 5725 5725 5725
5762 5753 5760 5778 5795 5793 5772 5744 5749 5760 5760 5757 5756 5756 5755 5753 5754 5755 5755 5753 5752 5751 5750 5749 5748 5747 5746 5744 5742 5740 5738 5736 5733 5731 5730 5729 5729 5729 5727 5724 5723 5722 5721 5721 5722 5722 5720 5719 5721
5745 5752 5759 5763 5775 5772 5752 5739 5742 5748 5748 5745 5746 5746 5745 5745 5744 5748 5748 5746 5745 5744 5742 5740 5738 5737 5736 5735 5733 5731 5729 5727 5725 5723 5721 5721 5721 5721 5719 5717 5716 5716 5715 5715 5715 5714 5715 5715 5716
5765 5758 5755 5763 5770 5755 5739 5730 5731 5737 5738 5735 5733 5737 5737 5737 5741 5743 5742 5741 5739 5736 5734 5731 5729 5727 5726 5723 5720 5718 5715 5715 5714 5713 5712 5711 5712 5712 5712 5710 5709 5710 5709 5709 5709 5708 5708 5709 5711
5765 5754 5750 5755 5761 5747 5728 5721 5724 5729 5727 5728 5727 5729 5730 5730 5733 5734 5734 5733 5731 5728 5725 5723 5721 5718 5716 5713 5710 5708 5706 5705 5704 5703 5702 5702 5702 5703 5703 5702 5702 5702 5703 5703 5702 5702 5701 5703 5705
5763 5757 5754 5749 5748 5743 5731 5713 5713 5719 5722 5725 5726 5725 5725 5725 5726 5726 5726 5725 5723 5720 5717 5716 5712 5709 5706 5704 5700 5698 5695 5694 5692 5692 5691 5692 5694 5694 5694 5694 5693 5694 5695 5695 5695 5696 5694 5695 5698
5752 5769 5767 5756 5737 5717 5725 5695 5699 5704 5707 5713 5716 5717 5719 5722 5722 5720 5719 5717 5714 5712 5709 5706 5702 5699 5697 5694 5690 5686 5681 5678 5678 5679 5680 5682 5683 5684 5685 5685 5685 5686 5686 5687 5688 5690 5689 5690 5691
5763 5772 5763 5752 5731 5712 5710 5695 5690 5696 5697 5704 5710 5714 5717 5717 5716 5715 5713 5710 5707 5704 5699 5696 5692 5689 5686 5684 5680 5675 5671 5669 5669 5669 5669 5670 5672 5674 5675 5676 5676 5677 5678 5679 5680 5681 5683 5684 5686
5773 5761 5748 5734 5718 5693 5696 5690 5684 5691 5698 5704 5708 5712 5714 5713 5711 5709 5707 5703 5698 5694 5690 5686 5681 5677 5675 5672 5669 5666 5662 5660 5658 5658 5657 5659 5660 5662 5664 5666 5667 5668 5669 5670 5672 5673 5675 5677 5679
5761 5733 5711 5702 5687 5682 5693 5688 5689 5704 5709 5708 5707 5708 5709 5706 5702 5699 5695 5691 5687 5683 5680 5676 5672 5667 5664 5661 5658 5656 5653 5651 5649 5648 5647 5648 5648 5650 5652 5655 5656 5657 5659 5661 5663 5664 5666 5669 5671
5752 5737 5708 5693 5682 5679 5686 5682 5692 5711 5713 5711 5708 5705 5702 5696 5693 5689 5685 5681 5678 5675 5671 5666 5662 5657 5655 5652 5649 5647 5645 5642 5640 5639 5638 5638 5638 5639 5642 5643 5645 5647 5649 5651 5653 5655 5657 5661 5664
5748 5736 5734 5706 5690 5676 5677 5685 5699 5708 5706 5704 5700 5697 5692 5688 5686 5681 5677 5673 5669 5665 5661 5657 5653 5649 5646 5643 5641 5638 5636 5633 5631 5629 5628 5628 5628 5629 5630 5632 5633 5635 5638 5640 5642 5644 5647 5651 5655
5756 5745 5722 5703 5681 5671 5674 5677 5678 5692 5693 5693 5691 5688 5685 5683 5678 5674 5669 5665 5661 5657 5653 5649 5645 5640 5637 5635 5631 5630 5626 5624 5621 5619 5617 5616 5617 5617 5618 5619 5620 5623 5625 5628 5630 5633 5637 5640 5644
5745 5738 5721 5701 5694 5674 5663 5669 5698 5693 5692 5688 5687 5685 5681 5677 5671 5666 5662 5658 5653 5649 5645 5640 5636 5632 5629 5626 5622 5619 5616 5613 5611 5608 5606 5605 5604 5604 5605 5606 5607 5609 5612 5615 5618 5621 5625 5628 5632
5747 5737 5722 5700 5691 5681 5665 5668 5704 5697 5694 5689 5685 5682 5677 5671 5666 5661 5656 5651 5646 5641 5637 5633 5629 5625 5622 5618 5614 5610 5607 5603 5600 5597 5595 5593 5592 5592 5592 5593 5594 5596 5599 5602 5605 5608 5613 5616 5620